"Pseudo-MPEC" for ZX94CF3

Created 2018 Dec 9 16:18:24 UT using Find_Orb

Click here for an explanation of pseudo-MPECs

 
 Astrometry: 
     ZX94CF3  C2018 11 06Zg+kC(Astrometry/.@lv0+R;(YhCa8wZUlCqdr.+h$nPx`*tJ6MF52
     ZX94CF3  C2018 11 06El(T1NQ\._$DH(ly'-]UWs(Cliva7B.sP?G(!/D:jH88*_kelOA#F52
     ZX94CF3  C2018 11 060]sVI7WQlAua1wSI\8o!^xBb.Il_3*X+:(vL3Bmc)$:7'v)PxhNtF52
     ZX94CF3  C2018 11 06R?%0$?lTEvlCZJ]qR4T\fB1`L:5?l0qe5[i.NCT.sFQSqh$#Y_hUF52
     ZX94CF3  C2018 12 04.24643 04 24 28.14 +12 41 06.4          21.4 GVNEOCPG96
     ZX94CF3  C2018 12 04.25205 04 24 26.90 +12 41 19.4          21.4 GVNEOCPG96
     ZX94CF3  C2018 12 04.25765 04 24 25.63 +12 41 32.5          21.3 GVNEOCPG96
     ZX94CF3  C2018 12 04.26326 04 24 24.45 +12 41 45.0                VNEOCPG96
     ZX94CF3 1C2018 12 04VNru=SdK[aYC[NhQ=m.?mb[rkc\/dm76hTD-YYn9#)s+LJH?XBy%658
     ZX94CF3 1C2018 12 04^'uSo)QVb0%!3.t?ZDASV=R6Gggve!Z'(/4x8eT!redacted;vYc658
     ZX94CF3 1C2018 12 04d,upvC]cse.*m=rE0^T1Z3gw/Z@H8*T3*08m^:XlxLcqqs/K*C9L658
     ZX94CF3 1C2018 12 04FL4'*D?x\30N2\8].1F3piv/)@KgdRgx3LwR$Y?4.+qBYehl[WMW658
     ZX94CF3 1C2018 12 04#g,2S,62Kt1vNTU:B!uTN-O^_4t$k;dGwg3(8an46HCPDE%RM2'f658
     ZX94CF3 1C2018 12 04n.KE/N2v0K7$9M]W%\]WcI_Ou.CJoyrXJ=ARP=cUTAn\HQ9'3v^w658
     ZX94CF3  C2018 12 04EU#rgM5.Z?KwtZriptt/!b`:_`7?[QCZ-FRtclickNB].a._\BW%H01
     ZX94CF3  C2018 12 04bm_t]6=qwdJLlF/T-q9CnJH`Hb0c$Wdp^=aU58s9de_M?Fy2jG78H01
     ZX94CF3  C2018 12 04N5BU+ZLFia_cT#(m+:*4*QKv8?k.vo]1klq%=nZWh`\1bPoP4V08H01
     ZX94CF3  C2018 12 04]o^Ttqi6NF%.`;skhS%BciZ8E5cIM?e.mhZ\X.]7pwRiC1-SpFgbH01
     ZX94CF3  C2018 12 04.37820 04 23 59.52 +12 46 12.6          21.1 GVNEOCPI52
     ZX94CF3  C2018 12 04.38278 04 23 58.52 +12 46 23.2          20.6 GVNEOCPI52
     ZX94CF3  C2018 12 04.38736 04 23 57.53 +12 46 33.9          21.3 GVNEOCPI52
     ZX94CF3  C2018 12 04.39194 04 23 56.53 +12 46 44.5          20.9 GVNEOCPI52
     ZX94CF3  C2018 12 04AJ45lHKJ0.b`:o`8Gn3=nU%92*Jd]tSrf!x72`S8Fmb,_B-.0J?)H01
     ZX94CF3  C2018 12 04oP_B;t-'Z`s'.5gGXuUBhereyXa]NlK:G1cwK+nf%!G:@A$0bKh]H01
     ZX94CF3  C2018 12 04gcy[d0Db[*0!ce#'wx+-aWOx8_5Q0/MbS7swS.[cdEO@V=!JMy:eH01
     ZX94CF3  C2018 12 04OggOt7^Uy3v!C9V9rfq3Qd=mf0[fH];gW-Aob@\^AZRxsJJ:A]E+H01
     ZX94CF3 KC2018 12 04Qw%G6T_,p%B/;RPe#j`:5Fo(r4W:?.?fL/te;kj8TD:owjZT4tHJL01
     ZX94CF3 KC2018 12 04,Kq%kw5fb*1,BeQ]4('n6B^@cVLUajbf;AX9VxUa/b]NmtbO0erRL01
     ZX94CF3 KC2018 12 08u.gaJbs=for?qrZZZ=b'8$VnhAfAEXjXv;S+\o/EhL:DRNYok:aoH21
     ZX94CF3 KC2018 12 08k-IJ*?#iULxToJL/H$7[N(v5RmEj9tI+(LU2k2U!_SU.W(=Y,.;4H21
     ZX94CF3 KC2018 12 08gQCj6%kkbXFcqyr%0Tvj;^_OOPyLh9sF]0%Uqb3=%^qQc',9KGx0H21
     ZX94CF3 ^C2018 12 08.40612004 09 55.459+15 18 06.61         21.18GVNEOCP568
     ZX94CF3 ^C2018 12 08.40729704 09 55.212+15 18 09.17         21.17GVNEOCP568
     ZX94CF3 ^C2018 12 08.40847504 09 54.966+15 18 11.76         21.12GVNEOCP568
     ZX94CF3 KC2018 12 08RGVR+fX+AOG/Fm=W1EcJpdH';PAk*$wQZ*6uukv*kR/4cTwg$j_WK51
     ZX94CF3 KC2018 12 08/s)FsEAnjS\@+k.Hy`i#Y=YSx[W]4g03)=.Q.L*DGiiUkh;[EqnbK51
     ZX94CF3 KC2018 12 08F-Y65hBCnLA;p0KaR@vx8k:B9!.rR.?`RP;tr9iexplanationyZK51

Station data:
(568) Mauna Kea  (N19.826116 W155.472200)  US/Hawaii.
(658) Dominion Astrophysical Observatory  (N48.519987 W123.417000)
   Canada/BritColumbia. 1.82-m Plaskett reflector.
(F52) Pan-STARRS 2, Haleakala  (N20.707384 W156.255910)  US/Hawaii.
(G96) Mt. Lemmon Survey  (N32.442754 W110.788720)  US/Arizona.  Observers B.
   M. Africano, E. J. Christensen, G. A. Farneth, D. C. Fuls, A. R. Gibbs, A.
   D. Grauer, H. Groeller, J. A. Johnson, R. A. Kowalski, S. M. Larson, G. J.
   Leonard, R. L. Seaman, F. C. Shelly. 1.5-m reflector + 10K CCD.
(H01) Magdalena Ridge Observatory, Socorro  (N33.984833 W107.189333)  US/New
   Mexico.  Observers W. H. Ryan, E. V. Ryan. Measurer W. H. Ryan. 2.4-m
   f/8.9 reflector + CCD.
(H21) Astronomical Research Observatory, Westfield  (N39.483057 W87.968270)
   US/Illinois. 0.76-m f/3.0 astrograph + CCD.
(I52) Steward Observatory, Mt. Lemmon Station  (N32.442547 W110.788920)
   US/Arizona.  Observers B. M. Africano, E. J. Christensen, G. A. Farneth,
   D. C. Fuls, A. R. Gibbs, A. D. Grauer, H. Groeller, J. A. Johnson, R. A.
   Kowalski, S. M. Larson, G. J. Leonard, R. L. Seaman, F. C. Shelly. 1.0-m
   reflector + CCD.
(K51) Osservatorio del Celado, Castello Tesino  (N46.029412 E11.657900)
   Italy.
(L01) Višnjan Observatory, Tičan  (N45.290900 E13.749300)  Croatia.
   Observers K. Korlević, E. Pettarin. Measurer E. Pettarin. 1.0-m f/2.9
   reflector + CCD.

Orbital elements:  ZX94CF3
   Perihelion 2018 Jul 15.864801 +/- 0.214 TT = 20:45:18 (JD 2458315.364801)
Epoch 2018 Dec  8.0 TT = JDT 2458460.5   Earth MOID: 0.8694   AutoNEOCP
M  36.04428768 +/- 0.18             (J2000 ecliptic)
n   0.24834973 +/- 0.000915         Peri.  279.66541 +/- 0.17
a   2.50664935 +/- 0.00616          Node    70.92272 +/- 0.0053
e   0.4033678 +/- 0.000818          Incl.   68.08164 +/- 0.057
P   3.97                   H 19.5   G  0.15   U  8.0  
q 1.49554758 +/- 0.00161    Q 3.51775112 +/- 0.0106
From 37 observations 2018 Nov. 6-Dec. 8; mean residual 0".23
Residuals in arcseconds: 
181106 F52  .00   .07-    181204 658  .22-  .55+    181204 L01  .16-  .27+    
181106 F52  .01+  .22+    181204 H01  .04+  .11-    181204 L01  .48-  .35+    
181106 F52  .04-  .07+    181204 H01  .11+  .16-    181208 H21  .14-  .30-    
181106 F52  .02+  .22-    181204 H01  .01+  .11-    181208 H21  .00   .29-    
181204 G96  .59+  .02-    181204 H01  .07-  .13-    181208 H21  .08-  .31-    
181204 G96  .30+  .13-    181204 I52  .29+  .21-    181208 568  .16+  .02+    
181204 G96  .49-  .08-    181204 I52  .17+  .23-    181208 568  .14+  .01+    
181204 G96  .08+  .65-    181204 I52  .19+  .15-    181208 568  .14+  .02+    
181204 658  .02+  .56+    181204 I52  .06+  .17-    181208 K51  .15+  .36+    
181204 658  .10-  .42+    181204 H01  .00   .25-    181208 K51  .10-  .01-    
181204 658  .06-  .30+    181204 H01  .04+  .20-    181208 K51  .18-  .32+    
181204 658  .16-  .18+    181204 H01  .12+  .13-    
181204 658  .26-  .27+    181204 H01  .04+  .06-    

Ephemerides (geocentric):
Date (UTC) HH   RA              Dec         delta   r     elong  mag " sig PA
---- -- -- --  -------------   -----------  ------ ------ -----  --- ---- ---
2018 12 09 16  04 05 39.635   +16 03 39.45  .96683 1.9340 164.5 21.5 .179  53
2018 12 09 17  04 05 31.258   +16 05 08.69  .96717 1.9342 164.5 21.5 .182  53
2018 12 09 18  04 05 22.887   +16 06 37.85  .96751 1.9344 164.4 21.5 .185  54
2018 12 09 19  04 05 14.522   +16 08 06.95  .96785 1.9346 164.4 21.5 .189  54
2018 12 09 20  04 05 06.162   +16 09 35.97  .96819 1.9348 164.3 21.5 .192  55
2018 12 09 21  04 04 57.807   +16 11 04.93  .96853 1.9350 164.3 21.5 .196  56
2018 12 09 22  04 04 49.458   +16 12 33.81  .96887 1.9352 164.2 21.5 .199  56
2018 12 09 23  04 04 41.114   +16 14 02.63  .96921 1.9354 164.1 21.5 .203  57
2018 12 10 00  04 04 32.775   +16 15 31.37  .96955 1.9356 164.1 21.5 .206  57
2018 12 10 01  04 04 24.443   +16 17 00.04  .96990 1.9358 164.0 21.5 .210  58
2018 12 10 02  04 04 16.115   +16 18 28.64  .97024 1.9360 164.0 21.5 .213  58
2018 12 10 03  04 04 07.794   +16 19 57.17  .97059 1.9362 163.9 21.5 .217  59
2018 12 10 04  04 03 59.477   +16 21 25.63  .97093 1.9364 163.8 21.5 .221  59
2018 12 10 05  04 03 51.167   +16 22 54.01  .97128 1.9366 163.8 21.5 .225  59
2018 12 10 06  04 03 42.862   +16 24 22.33  .97163 1.9368 163.7 21.5 .228  60
2018 12 10 07  04 03 34.562   +16 25 50.57  .97198 1.9370 163.7 21.5 .232  60
2018 12 10 08  04 03 26.269   +16 27 18.74  .97233 1.9371 163.6 21.5 .236  61
2018 12 10 09  04 03 17.980   +16 28 46.84  .97268 1.9373 163.5 21.5 .240  61
2018 12 10 10  04 03 09.698   +16 30 14.87  .97303 1.9375 163.5 21.5 .244  62
2018 12 10 11  04 03 01.421   +16 31 42.82  .97339 1.9377 163.4 21.5 .248  62
2018 12 10 12  04 02 53.150   +16 33 10.70  .97374 1.9379 163.4 21.5 .252  63
2018 12 10 13  04 02 44.885   +16 34 38.51  .97409 1.9381 163.3 21.5 .256  63
2018 12 10 14  04 02 36.625   +16 36 06.25  .97445 1.9383 163.2 21.5 .260  63
2018 12 10 15  04 02 28.371   +16 37 33.92  .97481 1.9385 163.2 21.5 .265  64
2018 12 10 16  04 02 20.123   +16 39 01.51  .97516 1.9387 163.1 21.5 .269  64
2018 12 10 17  04 02 11.880   +16 40 29.03  .97552 1.9389 163.1 21.5 .273  64
2018 12 10 18  04 02 03.644   +16 41 56.48  .97588 1.9391 163.0 21.5 .277  65
2018 12 10 19  04 01 55.413   +16 43 23.85  .97624 1.9393 162.9 21.5 .282  65
2018 12 10 20  04 01 47.188   +16 44 51.15  .97660 1.9395 162.9 21.5 .286  66
2018 12 10 21  04 01 38.969   +16 46 18.38  .97696 1.9397 162.8 21.5 .291  66
2018 12 10 22  04 01 30.755   +16 47 45.54  .97732 1.9399 162.7 21.5 .295  66
2018 12 10 23  04 01 22.548   +16 49 12.62  .97769 1.9401 162.7 21.5 .300  67
2018 12 11 00  04 01 14.346   +16 50 39.63  .97805 1.9403 162.6 21.5 .304  67
2018 12 11 01  04 01 06.151   +16 52 06.56  .97842 1.9405 162.6 21.5 .309  67
2018 12 11 02  04 00 57.961   +16 53 33.42  .97878 1.9407 162.5 21.5 .313  68
2018 12 11 03  04 00 49.777   +16 55 00.21  .97915 1.9409 162.4 21.5 .318  68
2018 12 11 04  04 00 41.599   +16 56 26.92  .97952 1.9411 162.4 21.5 .323  68
2018 12 11 05  04 00 33.428   +16 57 53.56  .97988 1.9412 162.3 21.5 .328  69
2018 12 11 06  04 00 25.262   +16 59 20.12  .98025 1.9414 162.3 21.5 .333  69
2018 12 11 07  04 00 17.102   +17 00 46.62  .98062 1.9416 162.2 21.5 .337  69
2018 12 11 08  04 00 08.948   +17 02 13.03  .98100 1.9418 162.1 21.6 .342  69
2018 12 11 09  04 00 00.800   +17 03 39.37  .98137 1.9420 162.1 21.6 .347  70
2018 12 11 10  03 59 52.658   +17 05 05.64  .98174 1.9422 162.0 21.6 .352  70
2018 12 11 11  03 59 44.523   +17 06 31.84  .98211 1.9424 161.9 21.6 .357  70
2018 12 11 12  03 59 36.393   +17 07 57.96  .98249 1.9426 161.9 21.6 .362  71
2018 12 11 13  03 59 28.269   +17 09 24.00  .98286 1.9428 161.8 21.6 .368  71
2018 12 11 14  03 59 20.152   +17 10 49.97  .98324 1.9430 161.8 21.6 .373  71
2018 12 11 15  03 59 12.041   +17 12 15.86  .98362 1.9432 161.7 21.6 .378  71